Copper Mountain, CO

5:43 AM MST on November 20, 2017 (GMT -0700)
Copper Mountain

Weather History for KCCU - August, 2014

Change the Weather History Date:

Sunday, August 10, 2014

  Actual Average Record
Temperature  
Mean Temperature 53 °F -  
Max Temperature 60 °F - 68 °F (2003)
Min Temperature 46 °F - 41 °F (2008)
Degree Days  
Heating Degree Days 12    
Month to date heating degree days  
Cooling Degree Days 0    
Month to date cooling degree days  
Growing Degree Days 3 (Base 50)    
Moisture  
Dew Point 34 °F    
Average Humidity 54    
Maximum Humidity 71    
Minimum Humidity 39    
Precipitation  
Precipitation 0.01 in - 0.21 in (2017)
Sea Level Pressure  
Sea Level Pressure 30.73 in    
Wind  
Wind Speed 8 mph (South)    
Max Wind Speed 23 mph    
Max Gust Speed 23 mph    
Visibility 10 miles    
Events Rain , Thunderstorm    
T = Trace of Precipitation, MM = Missing Value Source: NWS Daily Summary

Daily Weather History Graph

Daily Weather History Graph

Search for Another Location

Airport or City:

Trip Planner

Search our weather history database for the weather conditions in past years. The results will help you decide how hot, cold, wet, or windy it might be!

Date:

Astronomy

Aug. 10, 2014 Rise Set
Actual Time 6:12 AM MDT 8:06 PM MDT
Civil Twilight 5:43 AM MDT 8:35 PM MDT
Nautical Twilight 5:07 AM MDT 9:11 PM MDT
Astronomical Twilight 4:29 AM MDT 9:49 PM MDT
Moon 7:55 PM MDT (8/10) 6:07 AM MDT (8/10)
Length of Visible Light 14h 52m
Length of Day
13h 54m
Full, 100% of the Moon is Illuminated
Aug 10
Full
Aug 10
Full
Aug 17
Last Quarter
Aug 25
New
Sep 2
First Quarter

Hourly Weather History & Observations

Time (MDT) Temp. Windchill Dew Point Humidity Pressure Visibility Wind Dir Wind Speed Gust Speed Precip Events Conditions
12:16 AM 46.4 °F 44.3 °F 32.0 °F 57% 30.72 in 10.0 mi WSW 4.6 mph - N/A   Clear
12:36 AM 46.4 °F 42.9 °F 32.0 °F 57% 30.71 in 10.0 mi South 6.9 mph - N/A   Clear
12:56 AM 46.4 °F 42.4 °F 32.0 °F 57% 30.71 in 10.0 mi South 8.1 mph - N/A   Clear
1:16 AM 46.4 °F 43.5 °F 32.0 °F 57% 30.70 in 10.0 mi South 5.8 mph - N/A   Clear
1:36 AM 46.4 °F 45.2 °F 32.0 °F 57% 30.70 in 10.0 mi SSE 3.5 mph - N/A   Clear
1:56 AM 46.4 °F 43.5 °F 32.0 °F 57% 30.69 in 10.0 mi South 5.8 mph - N/A   Clear
2:16 AM 46.4 °F 42.9 °F 32.0 °F 57% 30.69 in 10.0 mi South 6.9 mph - N/A   Clear
2:36 AM 46.4 °F 44.3 °F 32.0 °F 57% 30.70 in 10.0 mi SE 4.6 mph - N/A   Clear
3:16 AM 46.4 °F 43.5 °F 32.0 °F 57% 30.69 in 10.0 mi East 5.8 mph - N/A   Clear
3:36 AM 46.4 °F 42.9 °F 32.0 °F 57% 30.69 in 10.0 mi South 6.9 mph - N/A   Scattered Clouds
3:56 AM 46.4 °F 43.5 °F 32.0 °F 57% 30.69 in 10.0 mi SSE 5.8 mph - N/A   Clear
4:16 AM 46.4 °F 40.7 °F 32.0 °F 57% 30.69 in 10.0 mi South 12.7 mph - N/A   Clear
4:36 AM 46.4 °F 40.4 °F 32.0 °F 57% 30.69 in 10.0 mi South 13.8 mph - N/A   Clear
5:16 AM 46.4 °F 41.1 °F 32.0 °F 57% 30.69 in 10.0 mi South 11.5 mph - N/A   Clear
5:36 AM 46.4 °F 40.4 °F 32.0 °F 57% 30.69 in 10.0 mi SSE 13.8 mph - N/A   Clear
6:16 AM 46.4 °F 40.4 °F 32.0 °F 57% 30.70 in 10.0 mi South 13.8 mph - N/A   Clear
6:36 AM 46.4 °F 40.4 °F 32.0 °F 57% 30.70 in 10.0 mi South 13.8 mph - N/A   Clear
6:56 AM 46.4 °F 39.2 °F 32.0 °F 57% 30.71 in 10.0 mi South 18.4 mph - N/A   Clear
7:16 AM 46.4 °F 39.5 °F 33.8 °F 62% 30.71 in 10.0 mi South 17.3 mph - N/A   Clear
7:36 AM 46.4 °F 40.4 °F 33.8 °F 62% 30.72 in 10.0 mi South 13.8 mph - N/A   Clear
7:56 AM 48.2 °F - 33.8 °F 58% 30.72 in 10.0 mi South 8.1 mph - N/A   Clear
8:16 AM 51.8 °F - 37.4 °F 58% 30.73 in 10.0 mi SSW 4.6 mph - N/A   Clear
8:36 AM 53.6 °F - 37.4 °F 54% 30.73 in 10.0 mi SSE 6.9 mph - N/A   Clear
8:56 AM 53.6 °F - 37.4 °F 54% 30.73 in 10.0 mi South 4.6 mph - N/A   Clear
9:16 AM 55.4 °F - 37.4 °F 51% 30.73 in 10.0 mi South 6.9 mph - N/A   Scattered Clouds
9:36 AM 53.6 °F - 33.8 °F 47% 30.74 in 10.0 mi SSE 8.1 mph - N/A   Overcast
9:56 AM 57.2 °F - 33.8 °F 41% 30.74 in 10.0 mi SSE 8.1 mph - N/A   Mostly Cloudy
10:16 AM 53.6 °F - 35.6 °F 51% 30.74 in 10.0 mi WNW 5.8 mph - N/A   Overcast
10:36 AM 59.0 °F - 35.6 °F 42% 30.75 in 10.0 mi SE 4.6 mph - N/A   Overcast
10:56 AM 59.0 °F - 33.8 °F 39% 30.75 in 10.0 mi SSE 5.8 mph - N/A   Overcast
11:16 AM 53.6 °F - 32.0 °F 44% 30.75 in 10.0 mi West 4.6 mph - N/A   Overcast
11:36 AM 59.0 °F - 35.6 °F 42% 30.75 in 10.0 mi NNW 5.8 mph - N/A   Mostly Cloudy
11:56 AM 59.0 °F - 35.6 °F 42% 30.75 in 10.0 mi West 5.8 mph - N/A   Overcast
12:16 PM 59.0 °F - 33.8 °F 39% 30.75 in 10.0 mi WSW 5.8 mph - N/A Thunderstorm Mostly Cloudy
12:36 PM 57.2 °F - 33.8 °F 41% 30.75 in 10.0 mi West 8.1 mph - N/A Thunderstorm Thunderstorm
12:56 PM 53.6 °F - 32.0 °F 44% 30.75 in 10.0 mi South 9.2 mph 19.6 mph N/A Rain , Thunderstorm Light Thunderstorms and Rain
1:16 PM 51.8 °F - 33.8 °F 50% 30.75 in 10.0 mi SSE 18.4 mph - N/A Rain , Thunderstorm Light Thunderstorms and Rain
1:36 PM 51.8 °F - 35.6 °F 54% 30.75 in 10.0 mi South 9.2 mph - N/A Thunderstorm Mostly Cloudy
1:56 PM 53.6 °F - 32.0 °F 44% 30.74 in 10.0 mi West 8.1 mph - N/A Thunderstorm Thunderstorm
2:16 PM 60.8 °F - 37.4 °F 42% 30.74 in 10.0 mi South 5.8 mph - N/A Thunderstorm Thunderstorm
2:36 PM 55.4 °F - 33.8 °F 44% 30.73 in 10.0 mi West 19.6 mph 23.0 mph N/A Rain , Thunderstorm Light Thunderstorms and Rain
2:56 PM 59.0 °F - 37.4 °F 45% 30.74 in 10.0 mi SSW 5.8 mph - N/A Thunderstorm Thunderstorm
3:16 PM 59.0 °F - 35.6 °F 42% 30.74 in 10.0 mi West 15.0 mph 20.7 mph N/A Thunderstorm Thunderstorm
3:36 PM 60.8 °F - 35.6 °F 39% 30.73 in 10.0 mi NNE 8.1 mph 16.1 mph N/A Thunderstorm Thunderstorm
3:56 PM 59.0 °F - 35.6 °F 42% 30.73 in 10.0 mi NE 10.4 mph - N/A Thunderstorm Thunderstorm
4:36 PM 53.6 °F - 35.6 °F 51% 30.74 in 10.0 mi WNW 6.9 mph - N/A Rain , Thunderstorm Light Thunderstorms and Rain
4:56 PM 46.4 °F 42.9 °F 33.8 °F 62% 30.75 in 5.0 mi West 6.9 mph 17.3 mph N/A Rain , Thunderstorm Thunderstorms and Rain
5:16 PM 46.4 °F 40.4 °F 35.6 °F 66% 30.74 in 10.0 mi SSE 13.8 mph - 0.01 in   Mostly Cloudy
5:36 PM 50.0 °F - 35.6 °F 58% 30.74 in 10.0 mi South 9.2 mph - 0.01 in   Mostly Cloudy
5:56 PM 53.6 °F - 37.4 °F 54% 30.73 in 10.0 mi NE 8.1 mph - N/A   Scattered Clouds
6:16 PM 51.8 °F - 37.4 °F 58% 30.73 in 10.0 mi South 4.6 mph - N/A   Clear
6:36 PM 53.6 °F - 39.2 °F 58% 30.74 in 10.0 mi NE 5.8 mph - N/A   Scattered Clouds
6:56 PM 50.0 °F - 37.4 °F 62% 30.73 in 10.0 mi SE 11.5 mph - N/A   Scattered Clouds
7:16 PM 50.0 °F - 37.4 °F 62% 30.74 in 10.0 mi South 8.1 mph - N/A   Scattered Clouds
7:36 PM 46.4 °F 42.9 °F 37.4 °F 71% 30.75 in 10.0 mi SW 6.9 mph - N/A   Mostly Cloudy
7:56 PM 46.4 °F 39.0 °F 37.4 °F 71% 30.74 in 10.0 mi South 19.6 mph - N/A   Mostly Cloudy
8:16 PM 46.4 °F 39.0 °F 37.4 °F 71% 30.75 in 10.0 mi South 19.6 mph - N/A   Scattered Clouds
8:36 PM 46.4 °F 38.3 °F 35.6 °F 66% 30.75 in 10.0 mi South 23.0 mph - N/A   Clear
8:56 PM 46.4 °F 39.8 °F 35.6 °F 66% 30.75 in 10.0 mi South 16.1 mph - N/A   Clear
9:16 PM 50.0 °F - 33.8 °F 54% 30.76 in 10.0 mi South 10.4 mph - N/A   Clear
9:36 PM 48.2 °F - 33.8 °F 58% 30.76 in 10.0 mi West 4.6 mph - N/A   Clear
9:56 PM 46.4 °F 40.7 °F 33.8 °F 62% 30.76 in 10.0 mi South 12.7 mph - N/A   Clear
10:16 PM 46.4 °F 40.1 °F 33.8 °F 62% 30.77 in 10.0 mi South 15.0 mph - N/A   Clear
10:36 PM 46.4 °F 40.4 °F 33.8 °F 62% 30.77 in 10.0 mi South 13.8 mph - N/A   Clear
10:56 PM 48.2 °F - 32.0 °F 54% 30.77 in 10.0 mi South 12.7 mph - N/A   Clear
11:16 PM 50.0 °F - 32.0 °F 50% 30.77 in 10.0 mi SSE 6.9 mph - N/A   Clear
11:36 PM 50.0 °F - 32.0 °F 50% 30.77 in 10.0 mi South 5.8 mph - N/A   Clear
11:56 PM 46.4 °F 45.2 °F 33.8 °F 62% 30.77 in 10.0 mi NW 3.5 mph - N/A   Clear